STARLINK-32485, 62143

Orbit data source: Space-Track

STARLINK-32485, 62143 is a payload satellite owned by SpaceX/Seattle (US) in LEO that was launched on Sat, 30 Nov 2024 UTC via an FALCON 9 launch vehicle from the Air Force Eastern Test Range (AFETR). Payload-class satellites include a variety of spacecraft equipped with specific instruments for various scientific and technological missions. These include communications satellites like Starlink; space stations such as the ISS; scientific satellites like the Hubble; Earth observation satellites from companies like Planet Labs, Umbra, and HawkEye 360; GPS; miniature CubeSats for education and research; and military/defense satellites.

Loading next visibility...
Identifier
62143, 2024-224E
Orbit
LEO
Country
Flag of USUS
Related business
Manufacturer
SpaceX/Seattle
Mission
Operational Commercial Communications
Bus & Motor
STARLINK V2M, Unknown motor
Mass
730 kg wet, ~700 kg dry
Launch date (UTC)
2024-11-30 (1 year ago)
Launch vehicle
FALCON 9
Launch site
Air Force Eastern Test Range (AFETR)
Object type
Payload
Rocket body
Debris
Shape & HBR
Box + 2 Pan, 17.7 m
Radar Cross Section
33.884 m², Large (>1 m²)

Expand to show TLE details & history
Last TLE update: 21 hours ago

TLE from 21 hours ago
0 STARLINK-32485
1 62143U 24224E   25348.82036865  .00018483  00000-0  67957-3 0  9991
2 62143  43.0001 280.5836 0001516 281.8605  78.2076 15.27576886 59033
Epoch: 2025-12-14T19:41Z
TLE epoch observation values (Epoch: 2025-12-14T19:41:19.851Z)
Latitude
-0.00005°
Longitude
-98.47697°
Altitude
482.621 km
Speed
7.626 km/s
True Right ascension
18h 42m 20s
True Declination
0° 00' 00"
Sunlit
Object was in daylight at epoch
Visualization orbit readout
Latitude
Unknown
Longitude
Unknown
Altitude
Unknown
Speed
Unknown
Apparent Right ascension
Unknown
Apparent Declination
Unknown
Sunlit
N/A
Visualization observer readout
Local Sidereal Time
15:11:05
Azimuth
Unknown
Elevation
Unknown
Doppler factor
Unknown
Orbital elements
Apogee altitude
486.044 km
Perigee altitude
483.963 km
Semi-major axis
6,863.141 km
Eccentricity
0.00015
Inclination
43.0001°
RAAN
280.5836°
Arg. of periapsis
281.8605°
True anomaly
78.22461°
Mean anomaly
78.2076°
Eccentric anomaly
78.2161°
Mean motion
3.81732 °/min
Orbital period
94.31 mins
BSTAR
0.00067957
Loading maneuver chart data...
Computing Atmospheric mass density...
Loading historical data...
Loading historical data...
Loading historical data...
Loading historical data...
Loading historical data...
Loading historical data...
Loading historical data...

Documentation

Showing up to 5 results
|